GW0254 Weather Reports


Display with metric or nautical units.
time (UTC)temp
F
wind
direction
speed
MPH
gust
MPH
rain 1hr
in
rain 24hr
in
rain mn
in
humidity
%
barometer
mb
20260503192524 58 65 4.0 11.0 0.00 0.09 0.00 39 1014.4
20260503192024 58 88 4.0 10.0 0.00 0.09 0.00 39 1014.6
20260503191549 58 47 3.0 10.0 0.00 0.09 0.00 39 1014.7
20260503191026 58 158 4.0 14.0 0.00 0.09 0.00 38 1014.8
20260503190525 59 81 5.0 14.0 0.00 0.09 0.00 37 1014.9
20260503190058 58 127 3.0 11.0 0.00 0.09 0.00 39 1014.9
20260503185525 59 165 6.0 14.0 0.00 0.09 0.00 36 1015.1
20260503185024 59 155 4.0 14.0 0.00 0.09 0.00 39 1015.1
20260503184541 58 148 6.0 14.0 0.00 0.09 0.00 37 1015.2
20260503184026 58 99 4.0 10.0 0.00 0.09 0.00 36 1015.3
20260503183524 58 205 3.0 8.0 0.00 0.09 0.00 38 1015.2
20260503183049 58 111 3.0 14.0 0.00 0.09 0.00 38 1015.2
20260503182525 58 111 4.0 15.0 0.00 0.09 0.00 35 1015.2
20260503182023 58 91 6.0 15.0 0.00 0.09 0.00 37 1015.3
20260503181545 57 167 5.0 15.0 0.00 0.09 0.00 39 1015.2
20260503181025 56 85 5.0 15.0 0.00 0.09 0.00 39 1015.2
20260503180525 56 113 7.0 15.0 0.00 0.09 0.00 38 1015.3
20260503180050 56 169 6.0 15.0 0.00 0.09 0.00 38 1015.2
20260503175524 56 92 6.0 15.0 0.00 0.09 0.00 40 1015.3
20260503175026 56 91 6.0 15.0 0.00 0.09 0.00 39 1015.3
20260503174543 56 98 7.0 14.0 0.00 0.09 0.00 40 1015.4
20260503174024 56 71 5.0 14.0 0.00 0.09 0.00 39 1015.4
20260503173526 56 88 4.0 20.0 0.00 0.09 0.00 38 1015.2
20260503173101 56 100 4.0 20.0 0.00 0.09 0.00 40 1015.3
20260503172525 56 86 8.0 20.0 0.00 0.09 0.00 38 1015.4
20260503172026 55 95 5.0 12.0 0.00 0.09 0.00 40 1015.2
20260503171542 55 86 5.0 13.0 0.00 0.09 0.00 41 1015.4
20260503171024 55 92 5.0 13.0 0.00 0.09 0.00 40 1015.4
20260503170525 55 107 5.0 13.0 0.00 0.09 0.00 40 1015.4
20260503150526 53 310 1.0 14.0 0.00 0.09 0.00 43 1015.6
20260503131029 50 38 2.0 9.0 0.00 0.09 0.00 48 1015.6
20260503130527 50 65 3.0 9.0 0.00 0.09 0.00 50 1015.5
20260503110527 50 0 2.0 5.0 0.00 0.09 0.00 57 1016.0
20260503081544 50 59 1.0 3.0 0.00 0.09 0.00 60 1017.8
20260503081025 50 59 1.0 3.0 0.00 0.09 0.00 56 1017.8
20260503080526 51 0 1.0 4.0 0.00 0.09 0.00 56 1018.0
20260503072526 52 84 3.0 7.0 0.00 0.09 0.00 57 1018.0
20260503072024 52 293 0.0 4.0 0.00 0.09 0.00 52 1017.8
20260503071548 52 0 0.0 5.0 0.00 0.09 0.00 53 1017.8
20260503071025 52 293 2.0 5.0 0.00 0.09 0.00 50 1017.8
20260503070524 52 347 2.0 5.0 0.00 0.09 0.00 51 1017.8
20260503055026 52 48 3.0 12.0 0.00 0.09 0.09 52 1017.9
20260503054542 52 71 5.0 12.0 0.00 0.09 0.09 53 1017.9
20260503054029 52 57 4.0 9.0 0.00 0.09 0.09 54 1017.8
20260503053528 52 71 3.0 9.0 0.00 0.09 0.09 54 1017.8
20260503053047 52 65 2.0 12.0 0.00 0.09 0.09 55 1017.8
20260503052529 52 61 4.0 12.0 0.00 0.09 0.09 55 1017.9
20260503052027 52 80 4.0 12.0 0.00 0.09 0.09 54 1017.9
20260503051550 51 59 3.0 10.0 0.00 0.09 0.09 57 1017.9
20260503051024 51 56 3.0 8.0 0.00 0.09 0.09 58 1017.9
20260503050526 50 46 2.0 8.0 0.00 0.09 0.09 60 1017.9
20260503050043 50 55 2.0 9.0 0.00 0.09 0.09 60 1017.9
20260503045532 50 59 3.0 13.0 0.00 0.09 0.09 60 1018.0
20260503045027 50 61 3.0 13.0 0.00 0.09 0.09 62 1018.0
20260503044541 50 66 3.0 13.0 0.00 0.09 0.09 62 1018.0
20260503044027 50 85 2.0 8.0 0.00 0.09 0.09 63 1017.9
20260503043528 50 75 2.0 8.0 0.00 0.09 0.09 63 1018.1
20260503043038 50 355 3.0 10.0 0.00 0.09 0.09 64 1018.1
20260503042527 50 329 4.0 10.0 0.00 0.09 0.09 63 1018.1
20260503042030 49 33 4.0 8.0 0.00 0.09 0.09 63 1018.2
20260503041545 49 15 2.0 8.0 0.00 0.09 0.09 64 1018.1
20260503041030 49 16 2.0 9.0 0.00 0.09 0.09 65 1018.2
20260503040527 49 335 4.0 9.0 0.00 0.09 0.09 64 1018.0
20260503040045 49 41 4.0 9.0 0.00 0.09 0.09 64 1018.0
20260503035527 48 54 4.0 10.0 0.01 0.09 0.09 67 1017.8
20260503035026 48 5 4.0 10.0 0.01 0.09 0.09 67 1017.8
20260503034541 48 42 3.0 14.0 0.01 0.09 0.09 68 1017.9
20260503034030 48 347 3.0 14.0 0.01 0.09 0.09 71 1017.7
20260503033527 48 324 3.0 10.0 0.01 0.09 0.09 70 1017.8
20260503033046 48 0 3.0 10.0 0.01 0.09 0.09 72 1017.6
20260503032527 48 5 2.0 8.0 0.01 0.09 0.09 73 1017.7
20260503032027 48 0 0.0 5.0 0.01 0.09 0.09 77 1017.7
20260503031545 47 0 1.0 5.0 0.02 0.09 0.09 73 1017.8
20260503031043 47 0 2.0 5.0 0.02 0.09 0.09 77 1017.8
20260503030526 46 0 0.0 3.0 0.03 0.09 0.09 82 1017.6
20260503030046 45 343 2.0 3.0 0.03 0.08 0.08 84 1017.5
20260503025526 45 343 0.0 4.0 0.04 0.08 0.08 86 1017.5
20260503025025 45 343 1.0 4.0 0.06 0.08 0.08 87 1017.4
20260503024545 45 343 1.0 5.0 0.08 0.08 0.08 86 1017.4
20260503024024 45 0 2.0 6.0 0.08 0.08 0.08 86 1017.3
20260503023525 45 343 3.0 6.0 0.08 0.08 0.08 85 1017.3
20260503023042 45 326 2.0 5.0 0.08 0.08 0.08 86 1017.3
20260503022524 44 325 2.0 5.0 0.08 0.08 0.08 85 1017.1
20260503022027 44 325 2.0 6.0 0.07 0.07 0.07 85 1017.2
20260503021547 45 325 3.0 6.0 0.07 0.07 0.07 84 1017.3
20260503021025 46 325 3.0 6.0 0.07 0.07 0.07 81 1017.6
20260503020525 47 325 1.0 6.0 0.06 0.06 0.06 80 1017.6
20260503020042 48 325 2.0 6.0 0.05 0.05 0.05 77 1017.5
20260503015525 50 38 2.0 9.0 0.04 0.04 0.04 72 1017.6
20260503015029 52 77 4.0 9.0 0.02 0.02 0.02 61 1017.6
20260503014605 53 92 3.0 9.0 0.00 0.00 0.00 55 1017.5
20260503014024 54 59 4.0 7.0 0.00 0.00 0.00 49 1017.4
20260503013527 54 71 2.0 10.0 0.00 0.00 0.00 48 1017.2
20260503013046 54 67 3.0 12.0 0.00 0.00 0.00 48 1017.2
20260503012527 54 60 3.0 12.0 0.00 0.00 0.00 48 1017.2
20260503012025 55 91 5.0 9.0 0.00 0.00 0.00 46 1017.4
20260503011547 55 97 3.0 7.0 0.00 0.00 0.00 45 1017.4
20260503011025 56 180 0.0 2.0 0.00 0.00 0.00 49 1017.3
20260503010527 56 0 0.0 2.0 0.00 0.00 0.00 47 1017.3
20260503010050 56 180 0.0 2.0 0.00 0.00 0.00 46 1017.3
20260503005527 56 0 0.0 4.0 0.00 0.00 0.00 44 1017.2
20260503005026 56 180 1.0 4.0 0.00 0.00 0.00 44 1017.1
20260503004550 56 180 1.0 4.0 0.00 0.00 0.00 45 1017.1
20260503004025 56 0 0.0 4.0 0.00 0.00 0.00 44 1017.2
20260503003528 56 180 2.0 3.0 0.00 0.00 0.00 46 1017.4
20260503003045 56 180 1.0 2.0 0.00 0.00 0.00 44 1017.4
20260503002526 57 0 0.0 3.0 0.00 0.00 0.00 44 1017.5
20260503002024 57 0 0.0 3.0 0.00 0.00 0.00 45 1017.6
20260503001550 57 180 1.0 3.0 0.00 0.00 0.00 45 1017.5
20260503001027 57 180 0.0 2.0 0.00 0.00 0.00 44 1017.3
20260503000528 57 0 0.0 3.0 0.00 0.00 0.00 46 1017.3
20260503000044 57 180 0.0 3.0 0.00 0.00 0.00 47 1017.4
20260502235525 57 180 0.0 3.0 0.00 0.00 0.00 47 1017.5
20260502235026 57 0 0.0 3.0 0.00 0.00 0.00 45 1017.5
20260502234543 57 180 0.0 3.0 0.00 0.00 0.00 46 1017.4
20260502234027 57 0 0.0 3.0 0.00 0.00 0.00 44 1017.4
20260502233525 57 0 1.0 3.0 0.00 0.00 0.00 44 1017.4
20260502233044 58 180 0.0 6.0 0.00 0.00 0.00 42 1017.4
20260502232527 58 0 0.0 6.0 0.00 0.00 0.00 41 1017.2
20260502232024 59 180 2.0 7.0 0.00 0.00 0.00 39 1017.4
20260502231544 59 255 2.0 7.0 0.00 0.00 0.00 39 1017.4
20260502231025 59 182 1.0 5.0 0.00 0.00 0.00 40 1017.4
20260502230528 59 182 0.0 5.0 0.00 0.00 0.00 39 1017.5
20260502230044 59 182 2.0 5.0 0.00 0.00 0.00 37 1017.5
20260502225524 59 182 0.0 3.0 0.00 0.00 0.00 39 1017.8
20260502225026 59 182 0.0 5.0 0.00 0.00 0.00 38 1017.8
20260502224544 59 182 0.0 5.0 0.00 0.00 0.00 38 1017.8
20260502224025 59 182 2.0 4.0 0.00 0.00 0.00 38 1017.6
20260502223526 59 182 2.0 4.0 0.00 0.00 0.00 39 1017.6
20260502223041 59 182 2.0 4.0 0.00 0.00 0.00 39 1017.8
20260502222528 59 182 1.0 4.0 0.00 0.00 0.00 37 1017.8
20260502222025 59 182 1.0 4.0 0.00 0.00 0.00 39 1018.0
20260502221539 59 0 2.0 4.0 0.00 0.00 0.00 38 1018.1
20260502221025 59 182 1.0 6.0 0.00 0.00 0.00 38 1018.0
20260502220525 60 182 2.0 6.0 0.00 0.00 0.00 38 1018.2
20260502220045 60 190 2.0 6.0 0.00 0.00 0.00 37 1018.2
20260502215526 60 192 2.0 6.0 0.00 0.00 0.00 39 1018.3
20260502215025 60 193 1.0 5.0 0.00 0.00 0.00 38 1018.2
20260502214544 60 193 1.0 6.0 0.00 0.00 0.00 37 1018.4
20260502214026 60 193 2.0 6.0 0.00 0.00 0.00 38 1018.5
20260502213524 60 175 1.0 4.0 0.00 0.00 0.00 37 1018.5
20260502213046 60 175 1.0 4.0 0.00 0.00 0.00 38 1018.3
20260502212524 59 175 1.0 6.0 0.00 0.00 0.00 38 1018.4
20260502212024 59 175 2.0 6.0 0.00 0.00 0.00 37 1018.5
20260502211546 59 175 2.0 4.0 0.00 0.00 0.00 37 1018.5
20260502211023 59 175 1.0 4.0 0.00 0.00 0.00 37 1018.7
20260502210526 59 175 1.0 5.0 0.00 0.00 0.00 37 1018.7
20260502210041 59 175 2.0 5.0 0.00 0.00 0.00 37 1018.7
20260502205528 59 184 2.0 4.0 0.00 0.00 0.00 37 1018.7
20260502205026 59 183 2.0 5.0 0.00 0.00 0.00 37 1018.6
20260502204545 59 185 1.0 5.0 0.00 0.00 0.00 36 1018.7
20260502204027 59 185 1.0 5.0 0.00 0.00 0.00 37 1018.6
20260502203526 59 185 1.0 5.0 0.00 0.00 0.00 36 1018.6
20260502203046 59 185 1.0 5.0 0.00 0.00 0.00 36 1018.7
20260502202528 59 184 2.0 5.0 0.00 0.00 0.00 34 1018.7
20260502202024 60 189 2.0 5.0 0.00 0.00 0.00 35 1018.8
20260502201542 60 182 2.0 5.0 0.00 0.00 0.00 34 1018.7
20260502201029 60 178 1.0 5.0 0.00 0.00 0.00 35 1018.7
20260502200526 59 178 1.0 5.0 0.00 0.00 0.00 36 1018.8
20260502200040 59 178 1.0 4.0 0.00 0.00 0.00 34 1018.9
20260502195527 60 178 1.0 4.0 0.00 0.00 0.00 35 1018.9
20260502195025 59 178 1.0 6.0 0.00 0.00 0.00 36 1018.9
20260502194556 59 184 3.0 6.0 0.00 0.00 0.00 36 1018.9
20260502194027 58 0 2.0 6.0 0.00 0.00 0.00 34 1019.1
20260502193537 59 189 2.0 6.0 0.00 0.00 0.00 36 1019.2
20260502193041 58 188 2.0 5.0 0.00 0.00 0.00 35 1019.0